GTI8262 LSZH-EDDP

Flight info

Callsign GTI8262
Flight time 1h 8m
Altitude 36000
Route DEGES5L/32 DEGES Z1 ETAGO DCT TIKNI/N0475F350 T279 TAMEB T955 GOXLI GOXLI1V
Aircraft B77L/H-SDE1E2E3FGHIJ2J3J4J5M1RWXY/LB1D1

Departure

Time 2026-04-25 21:27
Airport Zürich Airport (LSZH)

Arrival

Time 2026-04-25 22:36
Airport Leipzig/Halle Airport (EDDP)
Time Latitude Longitude Altitude Speed Heading
2026-04-25 20:58 47.45520 8.56774 1427 ft 0 kts 140°
2026-04-25 21:11 47.45523 8.56770 1424 ft 2 kts 140°
2026-04-25 21:11 47.45536 8.56754 1427 ft 2 kts 140°
2026-04-25 21:12 47.45549 8.56739 1424 ft 2 kts 140°
2026-04-25 21:12 47.45561 8.56723 1424 ft 2 kts 139°
2026-04-25 21:12 47.45573 8.56707 1423 ft 2 kts 130°
2026-04-25 21:12 47.45579 8.56695 1423 ft 1 kts 92°
2026-04-25 21:13 47.45579 8.56691 1423 ft 0 kts 94°
2026-04-25 21:16 47.45579 8.56693 1423 ft 2 kts 95°
2026-04-25 21:16 47.45575 8.56758 1424 ft 11 kts 96°
2026-04-25 21:16 47.45566 8.56888 1425 ft 13 kts 96°
2026-04-25 21:16 47.45595 8.57005 1430 ft 13 kts 29°
2026-04-25 21:17 47.45682 8.57028 1429 ft 13 kts
2026-04-25 21:17 47.45761 8.56982 1429 ft 13 kts 304°
2026-04-25 21:17 47.45779 8.56846 1429 ft 14 kts 277°
2026-04-25 21:17 47.45789 8.56697 1425 ft 15 kts 276°
2026-04-25 21:18 47.45799 8.56556 1424 ft 12 kts 276°
2026-04-25 21:18 47.45807 8.56449 1423 ft 3 kts 276°
2026-04-25 21:18 47.45809 8.56424 1421 ft 0 kts 276°
2026-04-25 21:22 47.45810 8.56403 1421 ft 5 kts 276°
2026-04-25 21:22 47.45822 8.56317 1425 ft 11 kts 299°
2026-04-25 21:22 47.45895 8.56305 1422 ft 12 kts
2026-04-25 21:22 47.45949 8.56313 1418 ft 2 kts
2026-04-25 21:23 47.45963 8.56316 1421 ft 2 kts
2026-04-25 21:23 47.45980 8.56319 1422 ft 3 kts
2026-04-25 21:23 47.45992 8.56320 1418 ft 0 kts
2026-04-25 21:24 47.45998 8.56321 1418 ft 3 kts
2026-04-25 21:24 47.46064 8.56338 1421 ft 13 kts 22°
2026-04-25 21:24 47.46121 8.56408 1420 ft 8 kts 38°
2026-04-25 21:25 47.46169 8.56392 1417 ft 8 kts 316°
2026-04-25 21:25 47.46181 8.56376 1416 ft 0 kts 316°
2026-04-25 21:26 47.46202 8.56346 1417 ft 21 kts 316°
2026-04-25 21:26 47.46511 8.55925 1411 ft 97 kts 317°
2026-04-25 21:27 47.47168 8.55028 1401 ft 157 kts 317°
2026-04-25 21:27 47.48065 8.53801 1592 ft 182 kts 317°
2026-04-25 21:27 47.49005 8.52545 2222 ft 182 kts 322°
2026-04-25 21:27 47.50046 8.51476 2906 ft 182 kts 331°
2026-04-25 21:28 47.51171 8.50607 3480 ft 188 kts 335°
2026-04-25 21:28 47.52345 8.49537 3775 ft 207 kts 323°
2026-04-25 21:28 47.53277 8.47845 4234 ft 220 kts 297°
2026-04-25 21:28 47.53667 8.45614 4797 ft 229 kts 270°
2026-04-25 21:29 47.53395 8.43315 5508 ft 227 kts 247°
2026-04-25 21:29 47.52719 8.41235 6232 ft 224 kts 244°
2026-04-25 21:29 47.52016 8.39169 6869 ft 224 kts 239°
2026-04-25 21:29 47.50915 8.37531 7346 ft 232 kts 206°
2026-04-25 21:30 47.49338 8.37051 7890 ft 237 kts 175°
2026-04-25 21:30 47.47780 8.37859 8419 ft 243 kts 143°
2026-04-25 21:30 47.46662 8.39731 8957 ft 246 kts 121°
2026-04-25 21:30 47.46111 8.41204 9354 ft 248 kts 116°
2026-04-25 21:31 47.45608 8.44483 9876 ft 257 kts 86°
2026-04-25 21:31 47.45681 8.47261 10059 ft 279 kts 88°
2026-04-25 21:31 47.45704 8.50181 10359 ft 297 kts 89°
2026-04-25 21:31 47.45709 8.53370 10550 ft 323 kts 89°
2026-04-25 21:32 47.45755 8.56820 10750 ft 348 kts 86°
2026-04-25 21:32 47.45901 8.60517 10977 ft 371 kts 85°
2026-04-25 21:32 47.46059 8.64381 11600 ft 383 kts 85°
2026-04-25 21:32 47.46211 8.68346 12428 ft 389 kts 85°
2026-04-25 21:33 47.46361 8.72361 13417 ft 392 kts 85°
2026-04-25 21:33 47.46510 8.76404 14350 ft 397 kts 85°
2026-04-25 21:33 47.46659 8.80500 15167 ft 402 kts 85°
2026-04-25 21:33 47.46587 8.84640 15878 ft 408 kts 96°
2026-04-25 21:34 47.46005 8.88799 16582 ft 417 kts 102°
2026-04-25 21:34 47.45299 8.92976 17398 ft 421 kts 102°
2026-04-25 21:34 47.44595 8.97197 18212 ft 425 kts 101°
2026-04-25 21:34 47.43944 9.01490 18915 ft 430 kts 99°
2026-04-25 21:35 47.43328 9.05833 19573 ft 435 kts 99°
2026-04-25 21:35 47.42714 9.10238 20211 ft 440 kts 99°
2026-04-25 21:35 47.42096 9.14632 20849 ft 444 kts 98°
2026-04-25 21:35 47.41836 9.19140 21275 ft 442 kts 81°
2026-04-25 21:36 47.42541 9.23527 21856 ft 439 kts 63°
2026-04-25 21:36 47.43984 9.27460 22586 ft 436 kts 54°
2026-04-25 21:36 47.45573 9.31299 23268 ft 440 kts 55°
2026-04-25 21:36 47.47139 9.35206 23862 ft 441 kts 53°
2026-04-25 21:37 47.49083 9.38718 24237 ft 441 kts 38°
2026-04-25 21:37 47.50677 9.40574 24569 ft 440 kts 30°
2026-04-25 21:37 47.54340 9.43178 25346 ft 435 kts 15°
2026-04-25 21:37 47.57272 9.44325 25867 ft 437 kts
2026-04-25 21:38 47.60280 9.45057 26338 ft 440 kts
2026-04-25 21:38 47.63342 9.45447 26829 ft 443 kts
2026-04-25 21:38 47.66436 9.45599 27324 ft 447 kts 360°
2026-04-25 21:38 47.69552 9.45739 27824 ft 450 kts 360°
2026-04-25 21:39 47.72692 9.45891 28310 ft 454 kts 360°
2026-04-25 21:39 47.75860 9.46061 28775 ft 457 kts
2026-04-25 21:39 47.79055 9.46242 29193 ft 461 kts
2026-04-25 21:39 47.82276 9.46390 29617 ft 464 kts 359°
2026-04-25 21:40 47.85472 9.46408 30054 ft 466 kts 357°
2026-04-25 21:40 47.88713 9.46365 30525 ft 466 kts 357°
2026-04-25 21:40 47.91950 9.46314 31057 ft 464 kts 357°
2026-04-25 21:40 47.95175 9.46275 31575 ft 463 kts 357°
2026-04-25 21:41 47.98402 9.46250 32044 ft 462 kts 357°
2026-04-25 21:41 48.01604 9.46236 32485 ft 462 kts 357°
2026-04-25 21:41 48.04818 9.46229 32956 ft 461 kts 357°
2026-04-25 21:41 48.08015 9.46223 33444 ft 459 kts 357°
2026-04-25 21:42 48.11205 9.46215 33923 ft 458 kts 357°
2026-04-25 21:42 48.14389 9.46207 34321 ft 457 kts 357°
2026-04-25 21:42 48.17571 9.46199 34653 ft 457 kts 357°
2026-04-25 21:42 48.20752 9.46196 34988 ft 457 kts 357°
2026-04-25 21:43 48.23930 9.46197 35329 ft 456 kts 357°
2026-04-25 21:43 48.27106 9.46199 35663 ft 456 kts 357°
2026-04-25 21:43 48.30286 9.46199 35920 ft 458 kts 357°
2026-04-25 21:43 48.33479 9.46199 36078 ft 461 kts 357°
2026-04-25 21:44 48.39910 9.46198 36145 ft 462 kts 357°
2026-04-25 21:45 48.49484 9.46202 36142 ft 456 kts 357°
2026-04-25 21:45 48.55774 9.46186 36142 ft 454 kts 356°
2026-04-25 21:46 48.62092 9.46113 36147 ft 454 kts 356°
2026-04-25 21:46 48.68418 9.46043 36143 ft 455 kts 356°
2026-04-25 21:47 48.74756 9.46361 36142 ft 459 kts
2026-04-25 21:47 48.81078 9.47858 36146 ft 460 kts
2026-04-25 21:48 48.87397 9.49434 36149 ft 460 kts
2026-04-25 21:48 48.93705 9.50976 36065 ft 458 kts
2026-04-25 21:48 48.96850 9.51733 35946 ft 456 kts
2026-04-25 21:49 48.99971 9.52476 35733 ft 454 kts
2026-04-25 21:49 49.03090 9.53214 35456 ft 453 kts
2026-04-25 21:49 49.06201 9.53951 35235 ft 452 kts
2026-04-25 21:50 49.12422 9.55458 35169 ft 456 kts
2026-04-25 21:50 49.18741 9.56989 35163 ft 463 kts
2026-04-25 21:51 49.25037 9.59238 35151 ft 467 kts 13°
2026-04-25 21:51 49.31232 9.62254 35145 ft 467 kts 14°
2026-04-25 21:52 49.37385 9.65264 35139 ft 467 kts 14°
2026-04-25 21:52 49.43578 9.68249 35135 ft 466 kts 13°
2026-04-25 21:53 49.49769 9.71215 35135 ft 466 kts 13°
2026-04-25 21:53 49.55953 9.74183 35156 ft 465 kts 13°
2026-04-25 21:54 49.62133 9.77157 35146 ft 465 kts 13°
2026-04-25 21:54 49.68306 9.80138 35141 ft 465 kts 14°
2026-04-25 21:55 49.74466 9.83121 35146 ft 464 kts 14°
2026-04-25 21:55 49.80630 9.86113 35150 ft 464 kts 14°
2026-04-25 21:56 49.86784 9.89108 35139 ft 463 kts 14°
2026-04-25 21:56 49.92932 9.92110 35141 ft 463 kts 14°
2026-04-25 21:57 49.99074 9.95116 35140 ft 463 kts 14°
2026-04-25 21:57 50.05215 9.98128 35145 ft 462 kts 14°
2026-04-25 21:58 50.11350 10.01148 35138 ft 462 kts 14°
2026-04-25 21:58 50.17472 10.04168 35135 ft 462 kts 14°
2026-04-25 21:59 50.23597 10.07197 35048 ft 463 kts 14°
2026-04-25 21:59 50.26662 10.08785 34655 ft 465 kts 17°
2026-04-25 21:59 50.29642 10.10897 34309 ft 475 kts 24°
2026-04-25 22:00 50.35270 10.16563 33534 ft 485 kts 33°
2026-04-25 22:00 50.37914 10.19818 33124 ft 482 kts 34°
2026-04-25 22:00 50.40532 10.23081 32747 ft 479 kts 34°
2026-04-25 22:00 50.43127 10.26315 32375 ft 476 kts 34°
2026-04-25 22:01 50.45712 10.29522 31994 ft 472 kts 33°
2026-04-25 22:01 50.48282 10.32696 31602 ft 468 kts 33°
2026-04-25 22:01 50.50842 10.35849 31084 ft 468 kts 33°
2026-04-25 22:01 50.52535 10.37931 30707 ft 467 kts 33°
2026-04-25 22:02 50.55941 10.42126 29913 ft 462 kts 33°
2026-04-25 22:02 50.58457 10.45230 29296 ft 457 kts 33°
2026-04-25 22:02 50.60948 10.48308 28641 ft 453 kts 33°
2026-04-25 22:02 50.63387 10.51326 27922 ft 451 kts 33°
2026-04-25 22:03 50.65848 10.54376 27212 ft 449 kts 33°
2026-04-25 22:03 50.68300 10.57418 26510 ft 448 kts 33°
2026-04-25 22:03 50.70743 10.60454 25820 ft 446 kts 34°
2026-04-25 22:03 50.73178 10.63484 25138 ft 445 kts 34°
2026-04-25 22:04 50.75602 10.66505 24509 ft 442 kts 34°
2026-04-25 22:04 50.77989 10.69548 23932 ft 441 kts 37°
2026-04-25 22:04 50.80161 10.72956 23296 ft 442 kts 44°
2026-04-25 22:04 50.82103 10.76719 22621 ft 442 kts 49°
2026-04-25 22:05 50.83793 10.80778 21978 ft 442 kts 55°
2026-04-25 22:05 50.85338 10.84969 21333 ft 440 kts 55°
2026-04-25 22:05 50.86861 10.89153 20739 ft 437 kts 55°
2026-04-25 22:05 50.88371 10.93303 20334 ft 430 kts 55°
2026-04-25 22:06 50.89843 10.97342 20151 ft 417 kts 54°
2026-04-25 22:06 50.91274 11.01253 20131 ft 408 kts 54°
2026-04-25 22:06 50.92711 11.05153 20135 ft 411 kts 54°
2026-04-25 22:06 50.94145 11.09043 19913 ft 407 kts 54°
2026-04-25 22:07 50.95567 11.12907 19508 ft 403 kts 54°
2026-04-25 22:07 50.96496 11.15434 19231 ft 400 kts 54°
2026-04-25 22:07 50.98361 11.20520 18651 ft 396 kts 54°
2026-04-25 22:07 50.99735 11.24273 18333 ft 389 kts 54°
2026-04-25 22:08 51.01067 11.27928 18215 ft 376 kts 54°
2026-04-25 22:08 51.02352 11.31457 18128 ft 363 kts 54°
2026-04-25 22:08 51.03597 11.34879 18013 ft 353 kts 53°
2026-04-25 22:08 51.04810 11.38208 17787 ft 344 kts 53°
2026-04-25 22:09 51.06002 11.41475 17448 ft 340 kts 53°
2026-04-25 22:09 51.07186 11.44726 16994 ft 340 kts 52°
2026-04-25 22:09 51.07974 11.46888 16661 ft 341 kts 52°
2026-04-25 22:09 51.09556 11.51248 16116 ft 339 kts 53°
2026-04-25 22:10 51.10333 11.53398 15875 ft 337 kts 52°
2026-04-25 22:10 51.11469 11.56648 15491 ft 337 kts 57°
2026-04-25 22:10 51.12262 11.60199 15031 ft 344 kts 68°
2026-04-25 22:10 51.12874 11.63861 14656 ft 342 kts 69°
2026-04-25 22:11 51.13474 11.67518 14280 ft 340 kts 69°
2026-04-25 22:11 51.14076 11.71160 13928 ft 338 kts 69°
2026-04-25 22:11 51.14681 11.74775 13500 ft 337 kts 68°
2026-04-25 22:11 51.15287 11.78370 13108 ft 335 kts 68°
2026-04-25 22:12 51.15894 11.81943 12722 ft 333 kts 69°
2026-04-25 22:12 51.16498 11.85499 12305 ft 332 kts 68°
2026-04-25 22:12 51.17099 11.89032 11909 ft 330 kts 69°
2026-04-25 22:12 51.17497 11.91371 11652 ft 329 kts 69°
2026-04-25 22:13 51.18296 11.96070 11153 ft 328 kts 69°
2026-04-25 22:13 51.18891 11.99581 10723 ft 329 kts 69°
2026-04-25 22:13 51.19480 12.03056 10330 ft 329 kts 69°
2026-04-25 22:13 51.20074 12.06571 9982 ft 326 kts 69°
2026-04-25 22:14 51.20662 12.10068 9720 ft 319 kts 69°
2026-04-25 22:14 51.21230 12.13454 9443 ft 313 kts 69°
2026-04-25 22:14 51.21791 12.16796 9109 ft 310 kts 68°
2026-04-25 22:14 51.22338 12.20056 8700 ft 308 kts 68°
2026-04-25 22:15 51.22891 12.23351 8302 ft 306 kts 69°
2026-04-25 22:15 51.23439 12.26624 7907 ft 304 kts 69°
2026-04-25 22:15 51.23981 12.29873 7535 ft 302 kts 69°
2026-04-25 22:16 51.25047 12.36293 6846 ft 295 kts 69°
2026-04-25 22:16 51.25635 12.39330 6726 ft 277 kts 61°
2026-04-25 22:16 51.26379 12.42086 6560 ft 264 kts 57°
2026-04-25 22:16 51.27133 12.44713 6324 ft 257 kts 57°
2026-04-25 22:17 51.27864 12.47286 5978 ft 254 kts 58°
2026-04-25 22:17 51.28580 12.49855 5595 ft 253 kts 58°
2026-04-25 22:17 51.29286 12.52437 5159 ft 254 kts 58°
2026-04-25 22:17 51.29985 12.55015 4993 ft 254 kts 59°
2026-04-25 22:18 51.30693 12.57635 5000 ft 257 kts 59°
2026-04-25 22:18 51.31325 12.60285 4968 ft 257 kts 72°
2026-04-25 22:18 51.31465 12.63155 4992 ft 261 kts 83°
2026-04-25 22:18 51.31543 12.66086 5001 ft 267 kts 81°
2026-04-25 22:19 51.31660 12.69027 5001 ft 269 kts 81°
2026-04-25 22:19 51.31783 12.72022 4974 ft 265 kts 81°
2026-04-25 22:19 51.31902 12.74894 4970 ft 260 kts 80°
2026-04-25 22:19 51.32024 12.77789 4984 ft 262 kts 80°
2026-04-25 22:20 51.32148 12.80711 4989 ft 264 kts 80°
2026-04-25 22:20 51.32314 12.83643 4993 ft 265 kts 77°
2026-04-25 22:20 51.32530 12.86585 4993 ft 267 kts 77°
2026-04-25 22:20 51.32755 12.89513 4981 ft 263 kts 77°
2026-04-25 22:21 51.32977 12.92401 4962 ft 260 kts 77°
2026-04-25 22:21 51.33202 12.95278 4983 ft 261 kts 75°
2026-04-25 22:21 51.33471 12.98156 4992 ft 264 kts 74°
2026-04-25 22:21 51.33735 13.01076 5002 ft 266 kts 75°
2026-04-25 22:22 51.33989 13.04015 4989 ft 267 kts 75°
2026-04-25 22:22 51.34221 13.06960 4990 ft 267 kts 77°
2026-04-25 22:22 51.34424 13.09912 4981 ft 267 kts 77°
2026-04-25 22:22 51.34786 13.12741 4950 ft 251 kts 55°
2026-04-25 22:23 51.35807 13.14791 4975 ft 227 kts 22°
2026-04-25 22:23 51.37205 13.15716 4966 ft 216 kts
2026-04-25 22:23 51.38672 13.16337 4983 ft 219 kts
2026-04-25 22:23 51.40143 13.16858 4948 ft 209 kts 353°
2026-04-25 22:24 51.41459 13.16323 4973 ft 191 kts 320°
2026-04-25 22:24 51.42255 13.14697 4978 ft 187 kts 296°
2026-04-25 22:24 51.42549 13.12621 4963 ft 201 kts 271°
2026-04-25 22:24 51.42297 13.10387 4994 ft 207 kts 265°
2026-04-25 22:25 51.42098 13.08137 4995 ft 200 kts 273°
2026-04-25 22:25 51.41931 13.05903 4986 ft 205 kts 266°
2026-04-25 22:25 51.41666 13.03650 4954 ft 204 kts 274°
2026-04-25 22:25 51.41858 13.01483 4974 ft 195 kts 287°
2026-04-25 22:26 51.42117 12.99334 4975 ft 197 kts 283°
2026-04-25 22:26 51.42333 12.97145 4984 ft 199 kts 283°
2026-04-25 22:26 51.42538 12.94943 4983 ft 201 kts 282°
2026-04-25 22:26 51.42734 12.92721 4981 ft 201 kts 282°
2026-04-25 22:27 51.42920 12.90527 4975 ft 201 kts 282°
2026-04-25 22:27 51.43102 12.88313 4976 ft 200 kts 282°
2026-04-25 22:27 51.43279 12.86112 4979 ft 199 kts 282°
2026-04-25 22:27 51.43453 12.83925 4980 ft 197 kts 282°
2026-04-25 22:28 51.43626 12.81751 4985 ft 197 kts 282°
2026-04-25 22:28 51.43743 12.79556 4986 ft 198 kts 277°
2026-04-25 22:28 51.43736 12.77337 4998 ft 200 kts 274°
2026-04-25 22:28 51.43673 12.75100 4993 ft 201 kts 273°
2026-04-25 22:29 51.43586 12.72868 5000 ft 201 kts 272°
2026-04-25 22:29 51.43489 12.70632 4996 ft 202 kts 272°
2026-04-25 22:29 51.43387 12.68390 5005 ft 202 kts 272°
2026-04-25 22:30 51.43175 12.63828 4565 ft 201 kts 272°
2026-04-25 22:30 51.43070 12.61605 4479 ft 200 kts 272°
2026-04-25 22:30 51.42968 12.59359 4372 ft 202 kts 272°
2026-04-25 22:30 51.42899 12.57907 4331 ft 193 kts 272°
2026-04-25 22:31 51.42767 12.55121 4006 ft 181 kts 272°
2026-04-25 22:31 51.42675 12.53125 3795 ft 180 kts 274°
2026-04-25 22:31 51.42585 12.51100 3578 ft 183 kts 273°
2026-04-25 22:31 51.42490 12.49052 3335 ft 185 kts 274°
2026-04-25 22:32 51.42395 12.47022 3129 ft 183 kts 273°
2026-04-25 22:32 51.42300 12.44995 2929 ft 181 kts 273°
2026-04-25 22:32 51.42209 12.43078 2710 ft 168 kts 274°
2026-04-25 22:32 51.42125 12.41293 2476 ft 154 kts 274°
2026-04-25 22:33 51.42049 12.39624 2289 ft 145 kts 274°
2026-04-25 22:33 51.41976 12.38056 2087 ft 137 kts 275°
2026-04-25 22:33 51.41908 12.36540 1914 ft 137 kts 274°
2026-04-25 22:33 51.41838 12.35013 1714 ft 138 kts 273°
2026-04-25 22:34 51.41765 12.33469 1511 ft 139 kts 272°
2026-04-25 22:34 51.41693 12.31920 1319 ft 139 kts 272°
2026-04-25 22:34 51.41623 12.30367 1087 ft 142 kts 271°
2026-04-25 22:34 51.41545 12.28784 923 ft 143 kts 270°
2026-04-25 22:35 51.41467 12.27194 721 ft 141 kts 272°
2026-04-25 22:35 51.41394 12.25605 552 ft 143 kts 271°
2026-04-25 22:35 51.41322 12.24131 473 ft 120 kts 269°
2026-04-25 22:35 51.41279 12.22993 466 ft 81 kts 266°
2026-04-25 22:36 51.41246 12.22312 461 ft 51 kts 266°
2026-04-25 22:36 51.41193 12.21858 460 ft 35 kts 244°
2026-04-25 22:36 51.41104 12.21618 460 ft 16 kts 238°
2026-04-25 22:36 51.41090 12.21582 459 ft 0 kts 237°
2026-04-25 22:37 51.41064 12.21561 459 ft 9 kts 184°
2026-04-25 22:37 51.41046 12.21601 461 ft 4 kts 88°
2026-04-25 22:37 51.41048 12.21647 462 ft 4 kts 87°
2026-04-25 22:37 51.41048 12.21692 462 ft 4 kts 88°
2026-04-25 22:38 51.41050 12.21738 463 ft 4 kts 87°
2026-04-25 22:38 51.41051 12.21785 463 ft 5 kts 86°
2026-04-25 22:38 51.41053 12.21823 462 ft 4 kts 86°
2026-04-25 22:38 51.41055 12.21872 462 ft 5 kts 86°
2026-04-25 22:39 51.41060 12.21966 461 ft 13 kts 85°
2026-04-25 22:39 51.41069 12.22143 461 ft 17 kts 85°
2026-04-25 22:39 51.41069 12.22280 461 ft 10 kts 115°
2026-04-25 22:39 51.41012 12.22338 462 ft 10 kts 132°
2026-04-25 22:40 51.40995 12.22447 462 ft 11 kts 89°
2026-04-25 22:40 51.41000 12.22566 464 ft 11 kts 85°
2026-04-25 22:40 51.41006 12.22694 467 ft 14 kts 86°
2026-04-25 22:40 51.41013 12.22856 467 ft 15 kts 86°
2026-04-25 22:41 51.41021 12.23019 470 ft 15 kts 85°
2026-04-25 22:41 51.41029 12.23182 469 ft 15 kts 85°
2026-04-25 22:41 51.41037 12.23343 470 ft 15 kts 86°
2026-04-25 22:41 51.41043 12.23506 472 ft 15 kts 85°
2026-04-25 22:42 51.41051 12.23669 475 ft 15 kts 85°
2026-04-25 22:42 51.41059 12.23837 470 ft 16 kts 85°
2026-04-25 22:42 51.41068 12.24026 470 ft 17 kts 86°
2026-04-25 22:42 51.41076 12.24220 468 ft 17 kts 86°
2026-04-25 22:43 51.41087 12.24413 470 ft 17 kts 85°
2026-04-25 22:43 51.41087 12.24564 467 ft 11 kts 109°
2026-04-25 22:43 51.41019 12.24606 467 ft 11 kts 175°
2026-04-25 22:43 51.40948 12.24615 469 ft 6 kts 176°
2026-04-25 22:44 51.40906 12.24611 470 ft 6 kts 211°
2026-04-25 22:44 51.40893 12.24540 470 ft 7 kts 265°
2026-04-25 22:44 51.40892 12.24513 470 ft 0 kts 265°